Starlink 30145

operational
NORAD ID: 57496 Int'l Des: 2023-113 Owner: SPXS Country: US Constellation: starlink
LEOCIRCULAR

Starlink 30145について

説明を読み込み中...

リアルタイム位置

3D地球を読み込み中...

次回通過

高度履歴

Altitude vs Time

uPlot chart will show altitude changes over time

軌道要素

1 57496U 23113B 25261.28066888 -.00000294 00000-0 -66618-5 0 9992
2 57496 43.0028 234.3133 0001172 272.5324 87.5385 15.02536946117618
Epoch: Sep 18, 2025 • Age: 9 hours

現在のステータス

高度 559.5 km
速度 7.58 km/s
衛星直下点 -4.05°S, 174.21°W
打ち上げ日 Aug 7, 2023
運用期間 2.1 years
タイプ internet

技術仕様

分類 Payload
質量 730.00 kg
乾燥質量 700.00 kg
総質量 730.00 kg
長さ 0.30 m
直径 4.10 m
スパン 29.00 m
形状 Box + pan
製造者 SPXS
バスタイプ Starlink V2M
フェーズステータス In Orbit
所有者/国 SPXS/US

大規模コンステレーション

Loading constellations...